Location: Unspecified
(0.0000°N, 0.0000°E)
Time: 14:25:18
(UTC+00:00)

BREEZE-M R/B - Pass Details

Date: 30 October 2020
Orbit: 3083 x 63194 km, 23.7° (Epoch: 26 November)

Event Time Altitude Azimuth Distance (km) Brightness Sun altitude
Rises 04:54:25 0° 240° (WSW) 8,129 ? -11.9°
Reaches altitude 10° 04:57:45 10° 238° (WSW) 7,695 ? -11.1°
Maximum altitude 08:52:54 73° 13° (NNE) 43,768 ? 45.5°
Drops below altitude 10° 16:04:59 10° 293° (WNW) 68,063 ? 23.9°
Sets 17:02:02 0° 293° (WNW) 68,390 ? 10.1°
